星链-34010 (STARLINK-34010)

导读

STARLINK-34010是美国太空探索技术公司星链星座的成员,于2025年5月7日发射入轨。星链项目旨在构建全球卫星互联网通信系统,为全球偏远地区、海洋等传统网络覆盖盲区提供低成本高速互联网接入服务,这颗卫星承担着扩容星座网络、提升星座覆盖密度与通信容量的任务,推动星链星座服务能力进一步升级。

基本信息
目录编号:
63848
目录名称:
STARLINK-34010
国际标识:
2025-093N
轨道中心:
EARTH
卫星名称:
星链-34010
卫星全名:
星链-34010 (STARLINK-34010)
卫星状态:
在轨 (已飞行485 天)
发射日期:
2025-05-07 UTC
国别 :
美国 (US)
星等 :
--
轨道信息
数据来源 国际轨道数据
星历时间: 2026-09-04T11:17:07+0800
12小时前
查看轨道信息
半长轴: 6861.152km
偏心率: 0.0001425
轨道倾角: 43.001°
近地点辐角 275.980°
升交点赤经 150.102°
平近点角 84.089°
近地点: 482.037km
远地点: 483.993km
周期: 94.266分钟
每日圈数: 15.275915
详细信息
固有亮度:
5
最大亮度:
2.5
卫星平台:
Starlink V1.0
覆盖范围:
全球
运营商:
太空探索技术公司
运营商所在国:
美国
制造商(研发单位):
太空探索技术公司
制造商所在国:
美国
使用方式:
暂无
卫星简介
Starlink 计划是 SpaceX 推出的全球卫星互联网项目,通过发射低轨道卫星,为全球尤其是偏远地区提供高速、低延迟的互联网服务。自 2019 年起,Starlink 已部署数千颗卫星,旨在缩小全球数字鸿沟,推动互联网普及。该项目还为军事、航空等行业提供通信支持,带来广泛经济效益。
2D轨道图
3D轨道图
轨道高度分析图
轨道倾角分析图
轨道综合分析图
查看轨道综合分析图
交会数据列表
事件ID 空间交会对象 最接近时刻(TCA) 交会距离 交会风险概率(CRP) 交会风险指数(CRI) 操作
CDM_260905-004505-725506-384821
2026-09-05T
00:45:49+0000
0.153 km
中距离
7.344979E-4 高风险 0.92
CDM_260905-021905-725506-384821
2026-09-05T
02:19:58+0000
1.821 km
极远距离
1.868782E-6 低风险 0.4
CDM_260904-231105-725506-384821
2026-09-04T
23:11:40+0000
1.979 km
极远距离
1.514085E-6 低风险 0.39
CDM_260904-152702-893206-384822
H-2A R/B (28932)
2026-09-04T
15:27:03+0000
2.525 km
极远距离
1.502315E-6 低风险 0.39
CDM_260905-074905-725506-384821
2026-09-05T
07:49:30+0000
2.355 km
极远距离
1.047012E-6 低风险 0.35